Location: Friaudour
(46.0460°N, 1.2873°E)
Time: 09:42:19
(UTC+00:00)

BREEZE-M DEB (TANK) - Pass Details

Date: 14 July 2020
Orbit: 427 x 13239 km, 46.0° (Epoch: 06 August)

Event Time Altitude Azimuth Distance (km) Brightness Sun altitude
Rises 00:00:12 0° 246° (WSW) 8,270 8.6 -22.3°
Reaches altitude 10° 00:07:48 10° 246° (WSW) 5,427 7.6 -22.3°
Maximum altitude 00:19:06 71° 166° (SSE) 1,004 3.8 -22.2°
Drops below altitude 10° 00:22:56 10° 81° (E) 1,931 5.7 -22.1°
Sets 00:24:26 0° 79° (E) 2,610 6.5 -22.1°
